Torna al catalogo

STARLINK-6336

AttivoComunicazioniVLEO
NORAD 56788·PAYLOAD·🇺🇸 United States

Lanciato May 31, 2023 da Vandenberg Space Force Base

Loading…

Prossimi Passaggi (prossime 24 ore)

TLE

AggiornatoSource: CelesTrak SupGP

Epoca: Sep 14, 2026, 21:44 UTC

1 56788C 23078X   26257.90604167  .00673770  00000+0  54304-1 0  2572
2 56788  70.0009 207.4003 0003005 268.7279 161.7439 14.99494822    11

Traccia STARLINK-6336 in tempo reale con AllMySat

Download on the App Store